User: anonymous   Login
Location: Unspecified
(0.0000°N, 0.0000°E)
Time: 09:36:18
(UTC+00:00)
Language:

STSS DEMO 2 (USA 209) - Orbit

View from above orbital plane
View from above orbital plane
View from above satellite
View from above satellite

Ground track
Ground track

The orbit data is extracted from the following two-line orbital elements,

1 35938U 09052B   14330.12027893 0.00000020  00000-0  88708-4 0    07
2 35938  57.9876  29.1259 0014652  91.2700 268.7300 12.79136881    09
Epoch (UTC): 26 November 2014 02:53:12
Eccentricity: 0.0014652
inclination: 57.9876°
perigee height: 1333 km
apogee height: 1356 km
right ascension of ascending node: 29.1259°
argument of perigee: 91.2700°
revolutions per day: 12.79136881
mean anomaly at epoch: 268.7300°
orbit number at epoch: 0

The dashed part of the orbit path shows where the satellite is in the earth's shadow,  

DLR